Location: Washington
(38.8950°N, 77.0370°W)
Time: 19:53:52
(UTC-04:00)

Tiangong 1 - Visible Passes

Search period start: 31 March 2015 00:00
Search period end: 10 April 2015 00:00
Orbit: 337 x 352 km, 42.8° (Epoch: 31 March)

Date Brightness Start Highest point End Pass type
(mag) Time Alt. Az. Time Alt. Az. Time Alt. Az.
31 Mar 2.0 19:53:51 10° WNW 19:56:38 37° N 19:59:25 10° ENE visible
31 Mar 2.9 21:29:43 10° WNW 21:31:22 30° WNW 21:31:22 30° WNW visible
01 Apr 1.4 20:17:16 10° WNW 20:20:09 50° NNE 20:22:17 16° E visible
01 Apr 4.2 21:53:13 10° W 21:53:40 13° W 21:53:40 13° W visible
02 Apr 0.8 20:40:29 10° WNW 20:43:25 81° SSW 20:44:28 36° ESE visible
03 Apr 2.1 21:03:43 10° W 21:06:23 31° SSW 21:06:34 31° SSW visible
04 Apr 3.8 21:27:48 10° WSW 21:28:34 12° SW 21:28:34 12° SW visible
05 Apr 2.5 20:13:39 10° W 20:16:13 28° SSW 20:18:47 10° SSE visible
06 Apr 3.8 20:37:47 10° SW 20:38:34 11° SW 20:39:16 10° SSW visible
